Home   Weather   Bend   Past weeks
Flag for USA

Past Weather in Bend, Oregon, USA — Yesterday and Last 2 Weeks

Now
44 °F

Light rain. Fog.


Feels Like: 40 °F
Forecast: 59 / 41 °F
Wind: 8 mph from North

Location: Roberts Field Airport

Current Time: May 25, 2019 at 10:18:03 pm

Latest Report: May 25, 2019 at 8:56 pm


Visibility: 6 mi

Pressure: 29.79 "Hg (26.03 "Hg at 1103m altitude)

Humidity: 85%

Dew Point: 40 °F

Location of BendLocation

Past Weather in Bend — Graph

°F

Bend Temperature Yesterday

Maximum temperature yesterday: 68 °F (at 11:56 am)
Minimum temperature yesterday: 44 °F (at 11:56 pm)
Average temperature yesterday: 56 °F

High & Low Weather Summary for the Past Weeks

 TemperatureHumidityPressure
High85 °F (May 11, 3:56 pm)93% (May 16, 3:56 am)29.98 "Hg (May 16, 3:56 am)
Low35 °F (May 25, 5:56 am)12% (May 11, 1:56 pm)29.49 "Hg (May 16, 1:56 pm)
Average54 °F60%29.81 "Hg
* Reported May 10 8:56 pm — May 25 8:56 pm, Bend. Weather by CustomWeather, © 2019

Note: Actual official high and low records may vary slightly from our data, if they occured in-between our weather recording intervals... More about our weather records

Advertising

Bend Weather History for the Previous 24 Hours

Scroll right to see more
 ConditionsComfort  
Time TempWeatherWind HumidityBarometerVisibility
8:56 pm
Sat, May 25
44 °FLight rain. Fog.8 mph85%29.79 "Hg6 mi
8:24 pm45 °FRain. Fog.7 mph86%29.79 "Hg5 mi
8:15 pm45 °FRain. Fog.9 mph90%29.79 "Hg2 mi
7:56 pm45 °FLight rain. Fog.7 mph90%29.78 "Hg4 mi
6:56 pm46 °FLight rain. Overcast.12 mph86%29.78 "Hg10 mi
5:56 pm49 °FLight rain. Mostly cloudy.9 mph77%29.78 "Hg6 mi
4:56 pm52 °FOvercast.15 mph55%29.76 "Hg10 mi
3:56 pm56 °FPartly sunny.20 mph46%29.74 "Hg10 mi
2:56 pm64 °FSunny.16 mph34%29.74 "Hg10 mi
1:56 pm63 °FSunny.3 mph31%29.78 "Hg10 mi
12:56 pm62 °FSunny.No wind35%29.80 "Hg10 mi
11:56 am59 °FSunny.No wind39%29.83 "Hg10 mi
10:56 am54 °FSunny.3 mph45%29.87 "Hg10 mi
9:56 am51 °FScattered clouds.3 mph52%29.90 "Hg10 mi
8:56 am49 °FSunny.6 mph57%29.93 "Hg10 mi
7:56 am45 °FSunny.6 mph65%29.94 "Hg10 mi
6:56 am40 °FSunny.No wind77%29.96 "Hg10 mi
5:56 am35 °FSunny.No wind82%29.96 "Hg10 mi
4:56 am36 °FClear.5 mph79%29.95 "Hg10 mi
3:56 am38 °FClear.6 mph79%29.95 "Hg10 mi
2:56 am36 °FClear.3 mph79%29.95 "Hg10 mi
1:56 am40 °FClear.6 mph70%29.94 "Hg10 mi
12:56 am42 °FClear.6 mph71%29.93 "Hg10 mi
11:56 pm
Fri, May 24
44 °FClear.7 mph65%29.92 "Hg10 mi
10:56 pm45 °FClear.10 mph65%29.92 "Hg10 mi
Weather by CustomWeather, © 2019

See weather overview